CW9871 Weather Reports


Display with metric or nautical units.
time (UTC)temp
F
wind
direction
speed
MPH
gust
MPH
rain 1hr
in
rain 24hr
in
rain mn
in
humidity
%
barometer
mb
20260505003057 64 0 0.0 2.0 0.00 0.00 0.00 42 1002.5
20260505001617 67 0 0.0 1.0 0.00 0.00 0.00 37 1002.4
20260505000107 69 0 0.0 1.0 0.00 0.00 0.00 34 1002.5
20260504234558 72 0 0.0 1.0 0.00 0.00 0.00 33 1002.4
20260504233110 72 74 2.0 4.0 0.00 0.00 0.00 32 1002.4
20260504231555 73 74 2.0 7.0 0.00 0.00 0.00 32 1002.4
20260504230056 74 65 3.0 9.0 0.00 0.00 0.00 30 1002.3
20260504224553 75 24 5.0 10.0 0.00 0.00 0.00 29 1002.1
20260504223053 75 79 6.0 10.0 0.00 0.00 0.00 31 1002.2
20260504221555 74 46 6.0 12.0 0.00 0.00 0.00 30 1002.1
20260504220101 75 99 7.0 13.0 0.00 0.00 0.00 31 1002.3
20260504214600 75 53 8.0 16.0 0.00 0.00 0.00 30 1002.4
20260504213054 74 65 8.0 14.0 0.00 0.00 0.00 31 1002.4
20260504211552 74 72 10.0 21.0 0.00 0.00 0.00 31 1002.4
20260504210058 73 72 10.0 19.0 0.00 0.00 0.00 32 1002.6
20260504204557 74 76 10.0 17.0 0.00 0.00 0.00 31 1002.6
20260504203058 74 44 11.0 21.0 0.00 0.00 0.00 32 1002.8
20260504201553 73 66 6.0 17.0 0.00 0.00 0.00 35 1003.0
20260504200104 73 79 9.0 18.0 0.00 0.00 0.00 34 1003.2
20260504194604 74 104 7.0 17.0 0.00 0.00 0.00 35 1003.3
20260504193113 73 70 11.0 19.0 0.00 0.00 0.00 36 1003.6
20260504191613 73 67 7.0 19.0 0.00 0.00 0.00 38 1003.7
20260504190057 72 20 11.0 21.0 0.00 0.00 0.00 37 1003.8
20260504184557 72 84 10.0 19.0 0.00 0.00 0.00 38 1004.0
20260504183057 71 79 9.0 18.0 0.00 0.00 0.00 42 1004.2
20260504181601 71 105 8.0 14.0 0.00 0.00 0.00 39 1004.2
20260504180059 70 45 9.0 17.0 0.00 0.00 0.00 43 1004.5
20260504174558 70 70 11.0 19.0 0.00 0.00 0.00 42 1004.7
20260504173058 70 66 7.0 18.0 0.00 0.00 0.00 46 1004.8
20260504171558 69 64 10.0 15.0 0.00 0.00 0.00 45 1004.7
20260504090124 52 36 4.0 12.0 0.00 0.00 0.00 54 1006.7
20260504081556 51 79 6.0 11.0 0.00 0.00 0.00 54 1007.1
20260504060108 51 73 4.0 10.0 0.00 0.00 0.00 57 1007.8
20260504044619 53 52 6.0 12.0 0.00 0.00 0.00 53 1008.2
20260504043057 53 56 5.0 11.0 0.00 0.00 0.00 53 1008.1
20260504041556 54 58 5.0 10.0 0.00 0.00 0.00 53 1008.1
20260504040113 54 62 5.0 8.0 0.00 0.00 0.00 52 1008.1
20260504034607 54 70 4.0 9.0 0.00 0.00 0.00 52 1008.0
20260504033058 54 73 5.0 15.0 0.00 0.00 0.00 52 1008.1
20260504031555 53 58 5.0 10.0 0.00 0.00 0.00 54 1008.1
20260504030055 53 63 3.0 6.0 0.00 0.00 0.00 55 1008.2
20260504024555 53 65 2.0 6.0 0.00 0.00 0.00 56 1008.3
20260504023053 53 67 3.0 6.0 0.00 0.00 0.00 56 1008.5
20260504021553 53 79 4.0 8.0 0.00 0.00 0.00 56 1008.6
20260504020056 53 68 3.0 8.0 0.00 0.00 0.00 56 1008.6
20260504014555 52 82 4.0 8.0 0.00 0.00 0.00 59 1008.6
20260504013108 52 79 3.0 10.0 0.00 0.00 0.00 60 1008.7
20260504011556 52 70 3.0 9.0 0.00 0.00 0.00 62 1008.9
20260504010101 51 86 4.0 12.0 0.00 0.00 0.00 64 1008.8
20260504004608 51 104 6.0 16.0 0.00 0.00 0.00 65 1009.2